TimeIST,TemperatureF,Dew PointF,Humidity,Sea Level PressureIn,VisibilityMPH,Wind Direction,Wind SpeedMPH,Gust SpeedMPH,PrecipitationIn,Events,Conditions,WindDirDegrees,DateUTC
12:00 AM,51.8,48.2,88,29.89,1.6,Calm,Calm,-,N/A,,Mist,0,2012-11-28 18:30:00
1:00 AM,51.8,46.4,82,29.89,1.6,Calm,Calm,-,N/A,,Mist,0,2012-11-28 19:30:00
2:00 AM,51.8,48.2,88,29.86,1.2,Calm,Calm,-,N/A,,Mist,0,2012-11-28 20:30:00
2:30 AM,50,47,84,29.89,1,Calm,Calm,,,,Mist,,2012-11-28 21:00:00
3:00 AM,50.0,46.4,87,29.86,1.2,Calm,Calm,-,N/A,,Mist,0,2012-11-28 21:30:00
4:00 AM,51.8,46.4,82,29.83,1.2,Variable,2.3,-,N/A,,Mist,0,2012-11-28 22:30:00
5:00 AM,50.0,44.6,82,29.86,1.2,Variable,2.3,-,N/A,,Mist,0,2012-11-28 23:30:00
5:30 AM,49,46,83,29.88,1,,2.3,,,,Mist,,2012-11-29 00:00:00
5:30 AM,50.0,44.6,82,29.86,1.2,Variable,2.3,-,N/A,,Mist,0,2012-11-29 00:00:00
6:00 AM,48.2,44.6,87,29.86,1.2,Variable,2.3,-,N/A,,Mist,0,2012-11-29 00:30:00
7:30 AM,50.0,44.6,82,29.92,0.5,Variable,2.3,-,N/A,Fog,Shallow Fog,0,2012-11-29 02:00:00
8:00 AM,53.6,46.4,77,29.92,0.6,Calm,Calm,-,N/A,Fog,Shallow Fog,0,2012-11-29 02:30:00
8:30 AM,58,48,61,29.96,1,,2.3,,,,Mist,,2012-11-29 03:00:00
11:30 AM,75.2,42.8,31,29.92,2.5,WNW,4.6,-,N/A,,Haze,300,2012-11-29 06:00:00
12:00 PM,77.0,44.6,32,29.92,2.5,WNW,4.6,-,N/A,,Haze,300,2012-11-29 06:30:00
12:30 PM,77.0,44.6,32,29.89,2.8,WNW,4.6,-,N/A,,Haze,290,2012-11-29 07:00:00
1:30 PM,78.8,46.4,32,29.86,3.1,NNW,4.6,-,N/A,,Haze,330,2012-11-29 08:00:00
2:00 PM,78.8,46.4,32,29.86,3.1,NNW,3.5,-,N/A,,Haze,330,2012-11-29 08:30:00
2:30 PM,80,45,19,29.85,2,NW,4.6,,,,Haze,320,2012-11-29 09:00:00
2:30 PM,78.8,44.6,30,29.83,3.1,NW,4.6,-,N/A,,Haze,320,2012-11-29 09:00:00
3:00 PM,78.8,44.6,30,29.83,3.1,WNW,4.6,-,N/A,,Haze,300,2012-11-29 09:30:00
3:30 PM,78.8,44.6,30,29.83,3.1,NW,3.5,-,N/A,,Haze,310,2012-11-29 10:00:00
4:00 PM,77.0,46.4,34,29.83,3.1,WNW,3.5,-,N/A,,Haze,300,2012-11-29 10:30:00
4:30 PM,77.0,53.6,44,29.83,3.1,Calm,Calm,-,N/A,,Haze,0,2012-11-29 11:00:00
5:00 PM,75.2,55.4,50,29.80,2.8,Calm,Calm,-,N/A,,Haze,0,2012-11-29 11:30:00
5:30 PM,71,54,45,29.83,2,Calm,Calm,,,,Haze,,2012-11-29 12:00:00
5:30 PM,71.6,53.6,53,29.83,2.8,Calm,Calm,-,N/A,,Haze,0,2012-11-29 12:00:00
6:00 PM,68.0,51.8,56,29.83,2.5,Calm,Calm,-,N/A,,Haze,0,2012-11-29 12:30:00
6:30 PM,66.2,53.6,64,29.83,2.2,Calm,Calm,-,N/A,,Haze,0,2012-11-29 13:00:00
7:30 PM,62.6,46.4,55,29.86,1.6,Calm,Calm,-,N/A,,Haze,0,2012-11-29 14:00:00
8:00 PM,62.6,51.8,68,29.86,1.9,Calm,Calm,-,N/A,,Haze,0,2012-11-29 14:30:00
8:30 PM,60,51,64,29.91,1,Calm,Calm,,,,Haze,,2012-11-29 15:00:00
8:30 PM,59.0,51.8,77,29.89,1.2,Calm,Calm,-,N/A,,Haze,0,2012-11-29 15:00:00
9:00 PM,59.0,51.8,77,29.89,1.2,Calm,Calm,-,N/A,,Mist,0,2012-11-29 15:30:00
10:00 PM,59.0,50.0,72,29.89,1.2,Calm,Calm,-,N/A,,Mist,0,2012-11-29 16:30:00
11:00 PM,57.2,50.0,77,29.89,1.2,Calm,Calm,-,N/A,,Mist,0,2012-11-29 17:30:00